TimeCST,TemperatureF,Dew PointF,Humidity,Sea Level PressureIn,VisibilityMPH,Wind Direction,Wind SpeedMPH,Gust SpeedMPH,PrecipitationIn,Events,Conditions,WindDirDegrees,DateUTC
12:15 AM,66.2,64.4,94,30.09,8.0,Calm,Calm,-,N/A,,Scattered Clouds,0,2012-12-04 06:15:00
12:35 AM,66.2,64.4,94,30.09,7.0,Calm,Calm,-,N/A,,Mostly Cloudy,0,2012-12-04 06:35:00
12:55 AM,66.2,64.4,94,30.08,7.0,Calm,Calm,-,N/A,,Mostly Cloudy,0,2012-12-04 06:55:00
1:15 AM,66.2,66.2,100,30.09,8.0,Calm,Calm,-,N/A,,Overcast,0,2012-12-04 07:15:00
1:35 AM,66.2,66.2,100,30.08,8.0,South,3.5,-,N/A,,Overcast,170,2012-12-04 07:35:00
1:55 AM,66.2,66.2,100,30.10,7.0,South,3.5,-,N/A,,Overcast,190,2012-12-04 07:55:00
2:15 AM,66.2,66.2,100,30.09,8.0,Calm,Calm,-,N/A,,Overcast,0,2012-12-04 08:15:00
2:35 AM,66.2,66.2,100,30.09,7.0,Calm,Calm,-,N/A,,Overcast,0,2012-12-04 08:35:00
2:55 AM,66.2,66.2,100,30.10,7.0,Calm,Calm,-,N/A,,Overcast,0,2012-12-04 08:55:00
3:15 AM,66.2,66.2,100,30.10,6.0,Calm,Calm,-,N/A,,Overcast,0,2012-12-04 09:15:00
3:35 AM,66.2,66.2,100,30.09,7.0,Calm,Calm,-,N/A,,Mostly Cloudy,0,2012-12-04 09:35:00
3:55 AM,66.2,66.2,100,30.10,7.0,Calm,Calm,-,N/A,,Mostly Cloudy,0,2012-12-04 09:55:00
4:15 AM,68.0,66.2,94,30.09,7.0,Calm,Calm,-,N/A,,Overcast,0,2012-12-04 10:15:00
4:35 AM,68.0,66.2,94,30.08,7.0,Calm,Calm,-,N/A,,Overcast,0,2012-12-04 10:35:00
4:55 AM,68.0,66.2,94,30.08,7.0,Calm,Calm,-,N/A,,Mostly Cloudy,0,2012-12-04 10:55:00
5:15 AM,68.0,66.2,94,30.10,7.0,Calm,Calm,-,N/A,,Mostly Cloudy,0,2012-12-04 11:15:00
5:35 AM,68.0,66.2,94,30.10,6.0,Calm,Calm,-,N/A,,Overcast,0,2012-12-04 11:35:00
5:55 AM,68.0,66.2,94,30.11,6.0,Calm,Calm,-,N/A,,Overcast,0,2012-12-04 11:55:00
6:15 AM,68.0,66.2,94,30.12,5.0,South,3.5,-,N/A,,Overcast,190,2012-12-04 12:15:00
6:55 AM,66.2,66.2,100,30.14,3.0,Calm,Calm,-,N/A,,Scattered Clouds,0,2012-12-04 12:55:00
7:15 AM,66.2,66.2,100,30.14,3.0,Calm,Calm,-,N/A,,Mostly Cloudy,0,2012-12-04 13:15:00
7:35 AM,68.0,66.2,94,30.15,3.0,Calm,Calm,-,N/A,,Mostly Cloudy,0,2012-12-04 13:35:00
7:55 AM,68.0,66.2,94,30.15,3.0,Calm,Calm,-,N/A,,Mostly Cloudy,0,2012-12-04 13:55:00
8:15 AM,68.0,66.2,94,30.16,4.0,Calm,Calm,-,N/A,,Scattered Clouds,0,2012-12-04 14:15:00
8:35 AM,68.0,66.2,94,30.16,4.0,Calm,Calm,-,N/A,,Mostly Cloudy,0,2012-12-04 14:35:00
8:55 AM,69.8,66.2,88,30.17,4.0,Calm,Calm,-,N/A,,Mostly Cloudy,0,2012-12-04 14:55:00
9:15 AM,69.8,68.0,94,30.18,5.0,Calm,Calm,-,N/A,,Mostly Cloudy,0,2012-12-04 15:15:00
9:35 AM,69.8,68.0,94,30.18,5.0,South,6.9,-,N/A,,Light Drizzle,190,2012-12-04 15:35:00
9:55 AM,69.8,68.0,94,30.18,5.0,Calm,Calm,-,N/A,,Light Drizzle,0,2012-12-04 15:55:00
10:15 AM,69.8,69.8,100,30.18,7.0,Calm,Calm,-,N/A,,Mostly Cloudy,0,2012-12-04 16:15:00
10:55 AM,71.6,69.8,94,30.16,8.0,Calm,Calm,-,N/A,Thunderstorm,Mostly Cloudy,0,2012-12-04 16:55:00
11:15 AM,71.6,68.0,88,30.16,9.0,Calm,Calm,-,N/A,Thunderstorm,Scattered Clouds,0,2012-12-04 17:15:00
11:35 AM,71.6,68.0,88,30.16,9.0,Calm,Calm,-,N/A,Thunderstorm,Mostly Cloudy,0,2012-12-04 17:35:00
11:55 AM,69.8,68.0,94,30.14,4.0,Calm,Calm,-,N/A,Rain-Thunderstorm,Light Rain,0,2012-12-04 17:55:00
12:15 PM,69.8,68.0,94,30.15,0.8,Calm,Calm,-,0.05,Rain-Thunderstorm,Heavy Thunderstorms and Rain,0,2012-12-04 18:15:00
12:35 PM,66.2,64.4,94,30.15,4.0,SSW,3.5,-,0.11,Rain-Thunderstorm,Heavy Thunderstorms and Rain,210,2012-12-04 18:35:00
12:55 PM,66.2,64.4,94,30.14,3.0,Calm,Calm,-,0.25,Thunderstorm,Overcast,0,2012-12-04 18:55:00
1:15 PM,66.2,64.4,94,30.14,10.0,Calm,Calm,-,0.03,Thunderstorm,Mostly Cloudy,0,2012-12-04 19:15:00
1:35 PM,64.4,62.6,94,30.13,10.0,Calm,Calm,-,0.03,,Scattered Clouds,0,2012-12-04 19:35:00
1:55 PM,64.4,62.6,94,30.12,10.0,Calm,Calm,-,0.03,,Clear,0,2012-12-04 19:55:00
2:15 PM,64.4,60.8,88,30.13,10.0,Calm,Calm,-,N/A,Thunderstorm,Clear,0,2012-12-04 20:15:00
2:35 PM,64.4,60.8,88,30.12,10.0,Calm,Calm,-,N/A,,Clear,0,2012-12-04 20:35:00
2:55 PM,66.2,62.6,88,30.12,10.0,Calm,Calm,-,N/A,,Clear,0,2012-12-04 20:55:00
3:15 PM,66.2,62.6,88,30.12,10.0,Calm,Calm,-,N/A,,Clear,0,2012-12-04 21:15:00
3:35 PM,66.2,62.6,88,30.12,10.0,Calm,Calm,-,N/A,,Clear,0,2012-12-04 21:35:00
3:55 PM,66.2,62.6,88,30.11,10.0,Calm,Calm,-,N/A,,Clear,0,2012-12-04 21:55:00
4:15 PM,68.0,64.4,88,30.11,10.0,Calm,Calm,-,N/A,,Clear,0,2012-12-04 22:15:00
4:35 PM,68.0,64.4,88,30.12,10.0,Calm,Calm,-,N/A,,Scattered Clouds,0,2012-12-04 22:35:00
4:55 PM,66.2,64.4,94,30.13,10.0,Calm,Calm,-,N/A,,Partly Cloudy,0,2012-12-04 22:55:00
5:15 PM,66.2,64.4,94,30.14,8.0,Calm,Calm,-,N/A,,Clear,0,2012-12-04 23:15:00
5:35 PM,66.2,64.4,94,30.14,9.0,Calm,Calm,-,N/A,,Clear,0,2012-12-04 23:35:00
5:55 PM,66.2,57.2,73,30.15,10.0,Calm,Calm,-,N/A,,Clear,0,2012-12-04 23:55:00
6:15 PM,62.6,59.0,88,30.16,10.0,Calm,Calm,-,N/A,,Clear,0,2012-12-05 00:15:00
6:35 PM,64.4,53.6,68,30.16,10.0,Calm,Calm,-,N/A,,Clear,0,2012-12-05 00:35:00
6:55 PM,62.6,57.2,82,30.17,10.0,Calm,Calm,-,N/A,,Clear,0,2012-12-05 00:55:00
7:15 PM,60.8,57.2,88,30.17,10.0,Calm,Calm,-,N/A,,Clear,0,2012-12-05 01:15:00
7:35 PM,59.0,55.4,88,30.18,10.0,Calm,Calm,-,N/A,,Clear,0,2012-12-05 01:35:00
7:55 PM,57.2,55.4,94,30.18,9.0,Calm,Calm,-,N/A,,Clear,0,2012-12-05 01:55:00
8:15 PM,57.2,55.4,94,30.19,10.0,Calm,Calm,-,N/A,,Clear,0,2012-12-05 02:15:00
8:35 PM,57.2,55.4,94,30.20,10.0,Calm,Calm,-,N/A,,Clear,0,2012-12-05 02:35:00
8:55 PM,57.2,53.6,88,30.20,10.0,Calm,Calm,-,N/A,,Clear,0,2012-12-05 02:55:00
9:15 PM,55.4,53.6,94,30.20,10.0,Calm,Calm,-,N/A,,Clear,0,2012-12-05 03:15:00
9:35 PM,55.4,53.6,94,30.20,7.0,Calm,Calm,-,N/A,,Clear,0,2012-12-05 03:35:00
9:55 PM,53.6,53.6,100,30.19,8.0,Calm,Calm,-,N/A,,Clear,0,2012-12-05 03:55:00
10:15 PM,57.2,51.8,82,30.20,10.0,Calm,Calm,-,N/A,,Clear,0,2012-12-05 04:15:00
10:35 PM,59.0,51.8,77,30.20,10.0,Calm,Calm,-,N/A,,Clear,0,2012-12-05 04:35:00
10:55 PM,59.0,50.0,72,30.20,10.0,Calm,Calm,-,N/A,,Clear,0,2012-12-05 04:55:00
11:15 PM,59.0,50.0,72,30.21,10.0,NNW,8.1,-,N/A,,Clear,330,2012-12-05 05:15:00
11:55 PM,57.2,48.2,72,30.22,10.0,Calm,Calm,-,N/A,,Mostly Cloudy,0,2012-12-05 05:55:00